Location: Waco, TX
(31.5480°N, 97.1670°W)
Time: 07:54:17
(UTC-06:00)

ISS - Pass Details

Date: 07 January 2018
Orbit: 402 x 407 km, 51.6° (Epoch: 18 January)

Event Time Altitude Azimuth Distance (km) Brightness Sun altitude
Rises 01:42:52 0° 218° (SW) 2,299 - -72.3°
Reaches altitude 10° 01:44:57 10° 215° (SW) 1,445 - -71.9°
Maximum altitude 01:48:09 63° 133° (SE) 450 - -71.3°
Drops below altitude 10° 01:51:23 10° 51° (NE) 1,456 - -70.7°
Sets 01:53:29 0° 48° (NE) 2,319 - -70.3°
